Home > Weather > Sørumsand > Past weeks

Flag for Norway Past Weather in Sørumsand, Norway — Yesterday and Last 2 Weeks

Now
68 °F

Scattered clouds.


Feels Like: 68 °F
Forecast: 52 / 66 °F
Wind: 15 mph from South

Location: Oslo Gardermoen Airport

Current Time: Jul 26, 2016 at 2:11:04 PM

Latest Report: Jul 26, 2016 at 1:20 PM


Visibility: N/A

Pressure: 29.89 "Hg

Humidity: 60%

Dew Point: 54 °F

Location of SørumsandLocation

Past Weather in Sørumsand — Graph

°F

Sørumsand Temperature Yesterday

Maximum temperature yesterday: 77 °F (at 1:20 PM)
Minimum temperature yesterday: 57 °F (at 4:20 AM)
Average temperature yesterday: 66 °F

High & Low Weather Summary for the Past Weeks

 TemperatureHumidityPressure
High79 °F (Jul 21, 4:50 PM)100% (Jul 13, 1:20 AM)30.12 "Hg (Jul 13, 1:20 AM)
Low46 °F (Jul 19, 4:20 AM)35% (Jul 16, 5:50 PM)29.42 "Hg (Jul 11, 12:20 PM)
Average63 °F68%29.89 "Hg
* Reported Jul 11 12:20 PM — Jul 26 12:20 PM, Sørumsand, Weather by CustomWeather, © 2016

Note: Actual official high and low records may vary slightly from our data, if they occured in-between our weather recording intervals... More about our weather records

Advertising

Sørumsand Weather History for the Previous 24 Hours

Scroll right to see more
 ConditionsComfort  
Time TempWeatherWind HumidityBarometerVisibility
12:20 PM
Tue, Jul 26
68 °FBroken clouds.16 mph64%29.89 "HgN/A
11:50 AM66 °FBroken clouds.16 mph64%29.89 "HgN/A
11:20 AM66 °FBroken clouds.17 mph64%29.89 "HgN/A
10:50 AM66 °FBroken clouds.17 mph73%29.89 "HgN/A
10:20 AM66 °FBroken clouds.13 mph73%29.89 "HgN/A
9:50 AM64 °FBroken clouds.13 mph83%29.89 "HgN/A
9:20 AM63 °FBroken clouds.10 mph88%29.89 "HgN/A
8:50 AM61 °FMore clouds than sun.8 mph94%29.89 "Hg6 mi
8:20 AM61 °FSprinkles. Low clouds.7 mph94%29.89 "Hg6 mi
7:50 AM61 °FSprinkles. More clouds than sun.6 mph94%29.89 "HgN/A
7:20 AM61 °FSprinkles. More clouds than sun.5 mph88%29.89 "HgN/A
6:50 AM61 °FRain showers. Broken clouds.5 mph88%29.89 "Hg3 mi
6:20 AM61 °FSprinkles. Broken clouds.1 mph88%29.89 "Hg4 mi
5:50 AM59 °FRain. Broken clouds.5 mph94%29.89 "HgN/A
5:20 AM61 °FLots of rain. Passing clouds.7 mph88%29.89 "Hg2 mi
4:50 AM61 °FLight rain. Passing clouds.3 mph88%29.92 "HgN/A
4:20 AM61 °FPartly cloudy.3 mph88%29.92 "HgN/A
3:50 AM61 °FPassing clouds.5 mph88%29.92 "HgN/A
3:20 AM61 °FPassing clouds.6 mph88%29.92 "HgN/A
2:50 AM61 °FPassing clouds.5 mph88%29.95 "HgN/A
2:20 AM61 °FPassing clouds.7 mph88%29.95 "HgN/A
1:50 AM61 °FPassing clouds.7 mph88%29.95 "HgN/A
1:20 AM61 °FPassing clouds.9 mph88%29.95 "HgN/A
12:50 AM63 °FPassing clouds.8 mph83%29.95 "HgN/A
12:20 AM61 °FPartly cloudy.8 mph88%29.95 "HgN/A
11:50 PM
Mon, Jul 25
63 °FScattered showers. Clear.5 mph83%29.95 "HgN/A
11:20 PM63 °FScattered showers. Mostly cloudy.7 mph83%29.95 "HgN/A
10:50 PM63 °FScattered showers. Partly sunny.5 mph83%29.95 "HgN/A
10:20 PM63 °FScattered showers. Partly sunny.6 mph83%29.98 "HgN/A
9:50 PM63 °FScattered showers. Clear.7 mph83%29.95 "HgN/A
9:20 PM64 °FSprinkles. Clear.5 mph78%29.95 "HgN/A
8:50 PM64 °FSprinkles. Broken clouds.7 mph78%29.98 "HgN/A
8:20 PM64 °FSprinkles. Broken clouds.8 mph73%29.98 "HgN/A
7:50 PM66 °FScattered showers. Clear.7 mph68%29.98 "HgN/A
7:20 PM66 °FScattered showers. Clear.5 mph64%29.98 "HgN/A
6:50 PM66 °FScattered showers. Clear.6 mph64%29.98 "HgN/A
6:20 PM68 °FScattered showers. Clear.8 mph60%29.98 "HgN/A
5:50 PM68 °FThundershowers. Broken clouds.10 mph64%30.01 "HgN/A
5:20 PM72 °FThundershowers. Partly sunny.13 mph61%29.98 "HgN/A
4:50 PM72 °FScattered showers. Partly sunny.15 mph53%29.98 "HgN/A
4:20 PM75 °FThundershowers. Partly sunny.15 mph50%29.98 "HgN/A
3:50 PM75 °FThundershowers. Clear.13 mph47%29.98 "HgN/A
3:20 PM77 °FSunny.17 mph44%29.98 "Hg10 mi
2:50 PM77 °FPassing clouds.14 mph44%29.98 "HgN/A
2:20 PM77 °FPassing clouds.12 mph44%29.98 "HgN/A
Weather by CustomWeather, © 2016

See weather overviewHow to use our weather pages